CW0630 Weather Reports


time (UTC)temp
C
wind
direction
speed
KPH
gust
KPH
rain 1hr
cm
rain 24hr
cm
rain mn
cm
humidity
%
barometer
mb
20260831231011 28 360 3.2 3.2 0.00 0.00 0.00 71 1018.2
20260831221026 30 355 0.0 3.2 0.00 0.00 0.00 64 1018.2
20260831211051 32 67 3.2 3.2 0.00 0.00 0.00 55 1017.8
20260831201020 32 360 8.0 9.7 0.00 0.00 0.00 55 1018.0
20260831191019 32 15 12.9 12.9 0.00 0.00 0.00 58 1018.3
20260831181026 33 37 6.4 6.4 0.00 0.00 0.00 56 1018.8
20260831171017 33 287 0.0 1.6 0.00 0.00 0.00 64 1019.3
20260831161019 32 110 0.0 0.0 0.00 0.00 0.00 62 1019.7
20260831151026 30 101 0.0 3.2 0.00 0.00 0.00 68 1019.8
20260831141027 30 275 0.0 0.0 0.00 0.00 0.00 70 1019.8
20260831131019 28 235 0.0 0.0 0.00 0.00 0.00 75 1019.7
20260831121023 25 197 0.0 0.0 0.00 0.00 0.00 83 1019.4
20260831111011 22 188 0.0 0.0 0.00 0.00 0.00 91 1019.1
20260831101025 22 189 0.0 0.0 0.00 0.00 0.00 90 1018.8
20260831091025 23 189 0.0 0.0 0.00 0.00 0.00 87 1018.7
20260831081018 24 185 4.8 4.8 0.00 0.00 0.00 84 1018.7
20260831071015 23 212 0.0 1.6 0.00 0.00 0.00 85 1018.8
20260831061032 23 203 0.0 3.2 0.00 0.00 0.00 85 1019.1
20260831051025 24 187 0.0 0.0 0.00 0.00 0.00 85 1019.5
20260831041021 25 187 0.0 0.0 0.00 0.00 0.00 81 1019.7
20260831031012 26 186 1.6 1.6 0.00 0.00 0.00 78 1019.8
20260831021028 25 189 0.0 0.0 0.00 0.00 0.00 80 1019.8
20260831011015 25 189 0.0 0.0 0.00 0.00 0.00 80 1020.0
20260831001017 26 189 0.0 0.0 0.00 0.00 0.00 76 1019.1